EW8311 Weather Reports


Display with metric or nautical units.
time (UTC)temp
F
wind
direction
speed
MPH
gust
MPH
rain 1hr
in
rain 24hr
in
rain mn
in
humidity
%
barometer
mb
20260906171606 90 99 1.0 4.0 0.00 0.00 0.00 37 1005.1
20260906170058 90 312 1.0 4.0 0.00 0.00 0.00 38 1005.2
20260906164547 89 264 1.0 3.0 0.00 0.00 0.00 37 1005.2
20260906163046 90 276 2.0 4.0 0.00 0.00 0.00 37 1005.3
20260906161602 87 237 0.0 3.0 0.00 0.00 0.00 40 1005.4
20260906160039 85 294 0.0 2.0 0.00 0.00 0.00 44 1005.5
20260906154544 84 285 0.0 3.0 0.00 0.00 0.00 43 1005.5
20260906153042 83 275 1.0 3.0 0.00 0.00 0.00 46 1005.6
20260906151529 82 320 0.0 1.0 0.00 0.00 0.00 47 1005.8
20260906150030 80 321 1.0 3.0 0.00 0.00 0.00 50 1005.9
20260906144527 79 85 0.0 0.0 0.00 0.00 0.00 55 1006.0
20260906143024 78 108 0.0 0.0 0.00 0.00 0.00 57 1005.8
20260906141522 79 108 0.0 1.0 0.00 0.00 0.00 50 1005.8
20260906140021 78 108 0.0 0.0 0.00 0.00 0.00 51 1005.6
20260906134522 77 108 0.0 0.0 0.00 0.00 0.00 52 1005.4
20260906133025 77 108 0.0 0.0 0.00 0.00 0.00 53 1005.4
20260906131518 77 108 0.0 0.0 0.00 0.00 0.00 52 1005.2
20260906130023 76 108 0.0 0.0 0.00 0.00 0.00 55 1005.2
20260906124516 77 108 0.0 0.0 0.00 0.00 0.00 53 1005.2
20260906123020 76 108 0.0 0.0 0.00 0.00 0.00 53 1005.3
20260906121530 77 108 0.0 1.0 0.00 0.00 0.00 52 1005.1
20260906120012 77 108 0.0 0.0 0.00 0.00 0.00 52 1005.0
20260906114519 78 108 0.0 0.0 0.00 0.00 0.00 52 1004.8
20260906113010 79 108 0.0 1.0 0.00 0.00 0.00 51 1004.6
20260906111510 79 108 0.0 0.0 0.00 0.00 0.00 52 1004.5
20260906110009 79 108 0.0 0.0 0.00 0.00 0.00 55 1004.3
20260906104509 79 134 0.0 2.0 0.00 0.00 0.00 51 1004.4
20260906103013 79 99 0.0 0.0 0.00 0.00 0.00 52 1004.4
20260906101507 78 335 0.0 0.0 0.00 0.00 0.00 55 1004.3
20260906100007 78 329 0.0 0.0 0.00 0.00 0.00 53 1004.2
20260906094506 78 329 0.0 0.0 0.00 0.00 0.00 53 1004.2
20260906093006 78 329 0.0 3.0 0.00 0.00 0.00 54 1004.1
20260906091505 77 7 0.0 1.0 0.00 0.00 0.00 57 1004.2
20260906090003 77 110 0.0 0.0 0.00 0.00 0.00 57 1004.2
20260906084504 78 118 0.0 0.0 0.00 0.00 0.00 57 1004.2
20260906083104 78 118 0.0 0.0 0.00 0.00 0.00 56 1004.2
20260906081557 78 118 0.0 0.0 0.00 0.00 0.00 55 1004.4
20260906080056 79 118 0.0 0.0 0.00 0.00 0.00 55 1004.3
20260906074554 79 118 0.0 0.0 0.00 0.00 0.00 54 1004.5
20260906073051 79 118 0.0 0.0 0.00 0.00 0.00 51 1004.7
20260906071549 80 118 0.0 0.0 0.00 0.00 0.00 51 1004.8
20260906070045 80 118 0.0 0.0 0.00 0.00 0.00 52 1004.9
20260906064545 82 118 0.0 0.0 0.00 0.00 0.00 47 1004.7
20260906063044 84 118 0.0 2.0 0.00 0.00 0.00 44 1004.7
20260906061548 85 97 0.0 1.0 0.00 0.00 0.00 41 1004.7
20260906060053 84 314 0.0 2.0 0.00 0.00 0.00 43 1004.8
20260906054546 83 328 0.0 0.0 0.00 0.00 0.00 45 1004.8
20260906053042 84 110 0.0 0.0 0.00 0.00 0.00 45 1004.9
20260906051541 86 101 0.0 2.0 0.00 0.00 0.00 40 1005.0
20260906050040 86 103 0.0 0.0 0.00 0.00 0.00 40 1005.0
20260906044540 87 322 0.0 3.0 0.00 0.00 0.00 39 1004.9
20260906043038 87 299 0.0 3.0 0.00 0.00 0.00 39 1005.0
20260906041538 87 332 0.0 2.0 0.00 0.00 0.00 39 1005.0
20260906040037 87 316 0.0 2.0 0.00 0.00 0.00 39 1005.0
20260906034552 88 101 0.0 0.0 0.00 0.00 0.00 38 1004.9
20260906033040 88 101 0.0 3.0 0.00 0.00 0.00 36 1004.6
20260906031537 89 271 0.0 3.0 0.00 0.00 0.00 36 1004.4
20260906030036 89 309 3.0 6.0 0.00 0.00 0.00 36 1004.1
20260906024539 89 333 2.0 6.0 0.00 0.00 0.00 36 1003.9
20260906023034 89 315 0.0 3.0 0.00 0.00 0.00 37 1003.9
20260906021540 89 302 0.0 3.0 0.00 0.00 0.00 36 1003.6
20260906020033 90 306 1.0 3.0 0.00 0.00 0.00 36 1003.6
20260906014533 91 319 0.0 5.0 0.00 0.00 0.00 35 1003.6
20260906013032 91 329 1.0 6.0 0.00 0.00 0.00 34 1003.5
20260906011532 92 325 2.0 8.0 0.00 0.00 0.00 34 1003.5
20260906010034 93 319 3.0 8.0 0.00 0.00 0.00 33 1003.5
20260906004531 94 316 4.0 10.0 0.00 0.00 0.00 33 1003.4
20260906003030 95 314 7.0 10.0 0.00 0.00 0.00 31 1003.4
20260906001545 95 335 4.0 12.0 0.00 0.00 0.00 31 1003.4
20260906000029 95 311 5.0 13.0 0.00 0.00 0.00 31 1003.3
20260905234529 95 327 4.0 11.0 0.00 0.00 0.00 31 1003.2
20260905233028 95 338 6.0 12.0 0.00 0.00 0.00 31 1003.2
20260905231528 95 303 6.0 17.0 0.00 0.00 0.00 31 1003.3
20260905230033 96 252 5.0 14.0 0.00 0.00 0.00 31 1003.4
20260905224525 96 311 7.0 14.0 0.00 0.00 0.00 30 1003.5
20260905223039 96 270 5.0 13.0 0.00 0.00 0.00 32 1003.6
20260905221523 96 290 2.0 9.0 0.00 0.00 0.00 32 1003.8
20260905220019 96 228 3.0 11.0 0.00 0.00 0.00 31 1003.9
20260905214517 96 326 4.0 8.0 0.00 0.00 0.00 32 1004.2
20260905213015 95 318 5.0 13.0 0.00 0.00 0.00 32 1004.5
20260905211514 96 319 2.0 10.0 0.00 0.00 0.00 32 1004.6
20260905210011 95 323 3.0 8.0 0.00 0.00 0.00 33 1004.9
20260905204508 95 278 3.0 8.0 0.00 0.00 0.00 34 1005.1
20260905203006 95 318 5.0 10.0 0.00 0.00 0.00 33 1005.3
20260905201504 95 304 3.0 11.0 0.00 0.00 0.00 33 1005.5
20260905200002 94 321 1.0 10.0 0.00 0.00 0.00 35 1005.7
20260905194600 93 303 4.0 7.0 0.00 0.00 0.00 35 1006.0
20260905193057 94 288 3.0 6.0 0.00 0.00 0.00 36 1006.2
20260905191555 93 263 3.0 8.0 0.00 0.00 0.00 36 1006.4
20260905190053 92 266 1.0 10.0 0.00 0.00 0.00 37 1006.7
20260905184557 92 285 1.0 6.0 0.00 0.00 0.00 38 1006.9
20260905183048 91 331 2.0 6.0 0.00 0.00 0.00 39 1007.1
20260905181548 91 321 3.0 7.0 0.00 0.00 0.00 39 1007.3
20260905180044 89 285 1.0 5.0 0.00 0.00 0.00 40 1007.4
20260905174543 89 348 3.0 7.0 0.00 0.00 0.00 39 1007.4
20260905173141 89 352 2.0 6.0 0.00 0.00 0.00 41 1007.6